GFSGL_prec_pwat_276.txt.gz
Precipitable_Water
1.70 1.65 1.56 1.35 1.23 1.36 1.48 1.56 1.52 1.51 1.44 1.37 1.35 1.36 1.36 1.35 1.30 1.11 1.05 0.98 0.82 0.76 0.82 0.89 0.95 1.22 1.36 1.51 1.55 1.59 1.58 1.68 1.66 1.82 1.93 2.06 2.09 2.15 2.19 2.29 2.32 2.32 2.37
1.69 1.51 1.34 1.29 1.35 1.38 1.37 1.54 1.59 1.58 1.57 1.42 1.34 1.36 1.37 1.42 1.39 1.25 1.14 1.07 0.88 0.73 0.72 0.86 0.85 0.94 0.94 1.02 1.21 1.23 1.30 1.48 1.52 1.37 1.50 1.64 1.79 2.00 2.09 2.14 2.26 2.32 2.34
1.68 1.51 1.43 1.39 1.47 1.49 1.59 1.67 1.69 1.65 1.62 1.48 1.38 1.36 1.35 1.36 1.33 1.28 1.15 1.08 0.97 0.81 0.76 0.75 0.84 0.89 0.87 0.91 0.96 1.03 1.14 1.21 1.28 1.31 1.34 1.52 1.65 1.84 1.85 1.94 2.03 2.15 2.23
1.70 1.36 1.36 1.51 1.62 1.69 1.82 1.81 1.63 1.67 1.62 1.49 1.40 1.33 1.33 1.28 1.24 1.19 1.08 1.00 0.92 0.85 0.85 0.80 0.83 0.87 0.87 0.92 0.92 0.91 1.00 1.03 1.04 1.03 1.06 1.18 1.32 1.46 1.53 1.47 1.54 1.78 1.93
1.66 1.36 1.42 1.61 1.67 1.67 1.75 1.79 1.76 1.69 1.51 1.43 1.32 1.23 1.20 1.13 1.09 1.02 0.97 0.90 0.86 0.82 0.85 0.84 0.86 0.82 0.86 0.89 0.89 0.90 0.94 0.96 0.97 0.96 0.93 0.96 0.95 1.04 1.12 1.33 1.41 1.50 1.62
1.68 1.53 1.59 1.64 1.60 1.60 1.70 1.76 1.70 1.60 1.46 1.29 1.15 1.01 0.90 0.84 0.87 0.89 0.91 0.88 0.86 0.82 0.75 0.76 0.80 0.79 0.78 0.78 0.80 0.86 0.92 0.92 0.93 0.95 0.94 0.95 1.02 1.02 1.03 1.04 1.09 1.18 1.23
1.78 1.71 1.65 1.67 1.58 1.54 1.64 1.63 1.59 1.47 1.27 1.04 0.90 0.82 0.77 0.79 0.80 0.82 0.83 0.78 0.73 0.71 0.69 0.70 0.71 0.80 0.78 0.73 0.74 0.77 0.80 0.86 0.98 0.99 0.92 1.01 1.02 1.09 1.12 1.07 1.03 1.00 1.02
1.88 1.81 1.74 1.67 1.51 1.45 1.37 1.33 1.35 1.27 1.02 0.98 0.89 0.85 0.82 0.79 0.78 0.73 0.64 0.56 0.51 0.50 0.51 0.52 0.54 0.61 0.69 0.69 0.66 0.65 0.68 0.74 0.80 0.87 0.90 0.92 1.00 0.97 0.96 1.03 1.15 1.24 1.13
1.75 1.67 1.61 1.49 1.34 1.21 1.11 1.04 0.98 0.85 0.87 0.87 0.82 0.77 0.74 0.71 0.65 0.57 0.53 0.50 0.49 0.50 0.53 0.54 0.57 0.57 0.60 0.63 0.59 0.58 0.58 0.59 0.72 0.80 0.83 0.85 0.89 0.94 0.96 0.93 0.88 1.04 1.06
1.60 1.55 1.56 1.45 1.26 1.10 0.99 0.88 0.81 0.77 0.77 0.80 0.74 0.73 0.69 0.59 0.58 0.56 0.57 0.55 0.52 0.52 0.54 0.55 0.57 0.58 0.61 0.62 0.60 0.59 0.55 0.64 0.67 0.66 0.71 0.76 0.79 0.78 0.90 0.98 0.96 0.95 1.03
1.56 1.49 1.32 1.21 1.02 0.92 0.84 0.76 0.71 0.70 0.73 0.72 0.67 0.64 0.60 0.58 0.59 0.59 0.58 0.54 0.51 0.49 0.49 0.51 0.54 0.56 0.54 0.57 0.62 0.61 0.62 0.71 0.77 0.78 0.80 0.81 0.81 0.84 0.88 1.00 1.12 1.12 1.01
1.43 1.22 1.10 0.95 0.87 0.82 0.69 0.68 0.65 0.61 0.55 0.54 0.53 0.55 0.57 0.56 0.54 0.52 0.51 0.51 0.50 0.46 0.45 0.50 0.54 0.56 0.56 0.57 0.58 0.62 0.67 0.71 0.73 0.74 0.75 0.79 0.85 0.89 0.93 0.95 1.07 1.16 1.23
1.20 1.02 0.87 0.87 0.86 0.80 0.69 0.64 0.58 0.57 0.54 0.53 0.52 0.48 0.49 0.52 0.53 0.53 0.51 0.50 0.50 0.48 0.49 0.50 0.52 0.54 0.55 0.57 0.59 0.60 0.60 0.62 0.64 0.66 0.65 0.71 0.82 0.94 1.01 1.00 1.00 1.11 1.14
0.91 0.88 0.90 0.87 0.82 0.76 0.73 0.66 0.61 0.57 0.53 0.52 0.52 0.51 0.53 0.54 0.54 0.54 0.53 0.53 0.53 0.52 0.51 0.50 0.49 0.49 0.52 0.55 0.57 0.61 0.62 0.62 0.60 0.59 0.64 0.71 0.82 0.86 0.89 0.98 0.94 0.94 0.96
0.89 0.96 0.93 0.88 0.81 0.76 0.74 0.68 0.65 0.66 0.63 0.57 0.58 0.58 0.56 0.53 0.54 0.57 0.54 0.53 0.53 0.53 0.51 0.48 0.45 0.44 0.43 0.47 0.52 0.57 0.62 0.65 0.63 0.64 0.64 0.66 0.71 0.78 0.84 0.93 0.97 0.98 0.95
0.91 0.93 0.91 0.81 0.80 0.74 0.72 0.71 0.75 0.75 0.73 0.70 0.69 0.65 0.63 0.63 0.61 0.58 0.57 0.56 0.55 0.55 0.50 0.46 0.46 0.45 0.44 0.45 0.49 0.55 0.61 0.66 0.67 0.68 0.69 0.69 0.70 0.74 0.75 0.88 0.92 0.89 0.90
0.88 0.84 0.80 0.74 0.75 0.72 0.72 0.69 0.68 0.73 0.74 0.71 0.69 0.67 0.66 0.63 0.62 0.60 0.57 0.56 0.58 0.58 0.52 0.49 0.49 0.49 0.49 0.50 0.53 0.60 0.62 0.71 0.77 0.76 0.74 0.74 0.73 0.72 0.74 0.77 0.83 0.80 0.84
0.87 0.84 0.78 0.77 0.76 0.73 0.71 0.73 0.74 0.69 0.64 0.62 0.70 0.70 0.67 0.64 0.62 0.61 0.60 0.58 0.54 0.58 0.55 0.51 0.52 0.53 0.53 0.53 0.57 0.66 0.71 0.77 0.80 0.81 0.81 0.80 0.76 0.75 0.71 0.71 0.75 0.78 0.75
0.80 0.81 0.81 0.78 0.75 0.76 0.75 0.73 0.73 0.70 0.66 0.65 0.67 0.66 0.63 0.63 0.62 0.62 0.63 0.59 0.57 0.56 0.53 0.56 0.58 0.57 0.56 0.58 0.62 0.72 0.78 0.81 0.84 0.86 0.86 0.86 0.86 0.85 0.81 0.75 0.76 0.72 0.74
0.81 0.79 0.83 0.82 0.82 0.76 0.73 0.69 0.66 0.67 0.64 0.63 0.61 0.60 0.60 0.60 0.58 0.59 0.63 0.62 0.60 0.60 0.59 0.62 0.63 0.61 0.58 0.61 0.66 0.75 0.82 0.85 0.87 0.88 0.87 0.89 0.90 0.89 0.84 0.78 0.77 0.73 0.70
0.85 0.87 0.90 0.90 0.90 0.87 0.82 0.77 0.74 0.69 0.65 0.63 0.62 0.62 0.62 0.62 0.63 0.67 0.64 0.64 0.65 0.63 0.61 0.66 0.65 0.61 0.60 0.65 0.70 0.76 0.81 0.85 0.87 0.87 0.86 0.87 0.89 0.88 0.90 0.89 0.83 0.80 0.77
1.01 0.98 1.00 1.01 0.96 0.93 0.83 0.75 0.71 0.68 0.65 0.63 0.61 0.62 0.64 0.64 0.66 0.62 0.57 0.62 0.65 0.64 0.68 0.67 0.65 0.60 0.64 0.67 0.70 0.75 0.79 0.81 0.83 0.83 0.85 0.86 0.88 0.90 0.92 0.92 0.90 0.85 0.82
1.00 0.95 0.94 0.91 0.90 0.83 0.77 0.73 0.70 0.67 0.65 0.64 0.66 0.66 0.67 0.68 0.70 0.65 0.63 0.67 0.67 0.67 0.69 0.69 0.61 0.60 0.69 0.71 0.71 0.77 0.80 0.79 0.81 0.82 0.84 0.88 0.90 0.91 0.93 0.93 0.93 0.86 0.84
0.87 0.83 0.82 0.82 0.77 0.72 0.70 0.70 0.72 0.72 0.72 0.71 0.72 0.70 0.69 0.71 0.70 0.69 0.70 0.69 0.69 0.68 0.66 0.58 0.57 0.62 0.64 0.63 0.66 0.76 0.82 0.84 0.82 0.77 0.81 0.85 0.89 0.90 0.95 0.95 0.95 0.95 0.91
0.77 0.78 0.79 0.76 0.71 0.70 0.70 0.75 0.79 0.73 0.71 0.72 0.73 0.77 0.79 0.84 0.81 0.72 0.68 0.68 0.65 0.60 0.49 0.47 0.51 0.56 0.57 0.56 0.60 0.72 0.79 0.78 0.76 0.73 0.71 0.77 0.84 0.90 0.97 0.98 0.98 0.97 0.96
0.75 0.75 0.77 0.77 0.76 0.82 0.79 0.74 0.73 0.72 0.73 0.74 0.81 0.86 0.86 0.84 0.72 0.68 0.67 0.64 0.56 0.44 0.44 0.46 0.48 0.50 0.49 0.51 0.52 0.61 0.68 0.68 0.66 0.66 0.66 0.74 0.76 0.86 0.98 1.00 1.01 1.00 0.99

GFSGL_prec_pwat_279.txt.gz
Precipitable_Water
1.70 1.68 1.65 1.60 1.39 1.19 1.38 1.48 1.60 1.65 1.57 1.45 1.32 1.30 1.27 1.27 1.31 1.27 1.23 1.14 1.01 0.82 0.75 0.78 0.85 0.93 0.86 0.93 1.13 1.24 1.25 1.27 1.23 1.48 1.70 1.78 1.84 1.90 2.07 2.17 2.27 2.29 2.32
1.74 1.73 1.65 1.50 1.29 1.40 1.49 1.54 1.67 1.64 1.67 1.60 1.44 1.33 1.27 1.27 1.30 1.24 1.20 1.11 0.99 0.86 0.77 0.74 0.77 0.84 0.86 0.91 0.92 0.90 1.02 1.15 1.08 1.08 1.34 1.44 1.50 1.63 1.73 1.86 2.01 2.18 2.22
1.77 1.72 1.55 1.27 1.38 1.48 1.58 1.70 1.83 1.74 1.65 1.59 1.49 1.38 1.28 1.23 1.16 1.16 1.14 1.06 0.97 0.85 0.80 0.81 0.81 0.79 0.76 0.81 0.86 0.85 0.91 0.98 1.05 0.98 0.95 1.18 1.34 1.42 1.43 1.56 1.62 1.77 1.96
1.75 1.60 1.43 1.42 1.48 1.57 1.66 1.71 1.79 1.79 1.71 1.57 1.40 1.31 1.26 1.22 1.17 1.08 0.99 0.89 0.84 0.82 0.83 0.83 0.85 0.79 0.73 0.73 0.76 0.78 0.83 0.86 0.95 0.96 0.95 0.96 1.00 1.14 1.25 1.22 1.27 1.44 1.45
1.85 1.62 1.52 1.57 1.66 1.71 1.68 1.66 1.72 1.73 1.61 1.53 1.33 1.19 1.07 0.97 0.91 0.83 0.79 0.77 0.74 0.71 0.73 0.75 0.77 0.82 0.81 0.79 0.73 0.72 0.74 0.73 0.74 0.79 0.83 0.88 0.90 0.95 0.96 1.03 1.03 1.15 1.28
1.94 1.65 1.72 1.69 1.70 1.68 1.66 1.69 1.67 1.64 1.54 1.41 1.25 0.93 0.81 0.77 0.79 0.81 0.75 0.68 0.65 0.63 0.60 0.61 0.64 0.71 0.69 0.70 0.72 0.74 0.75 0.68 0.67 0.70 0.72 0.76 0.86 1.00 1.08 1.04 1.00 0.94 0.83
1.94 1.85 1.84 1.78 1.76 1.74 1.70 1.53 1.45 1.31 1.28 1.12 1.10 0.93 0.80 0.77 0.76 0.72 0.63 0.56 0.55 0.55 0.55 0.55 0.54 0.57 0.58 0.58 0.58 0.62 0.67 0.74 0.78 0.73 0.66 0.68 0.71 0.83 0.92 0.90 0.96 0.96 0.98
1.67 1.70 1.70 1.71 1.78 1.71 1.53 1.28 1.16 1.06 0.96 0.82 0.77 0.76 0.72 0.67 0.63 0.63 0.63 0.61 0.58 0.58 0.58 0.60 0.59 0.58 0.62 0.63 0.61 0.58 0.57 0.59 0.67 0.74 0.76 0.75 0.78 0.81 0.83 0.84 0.85 0.87 0.93
1.75 1.66 1.66 1.77 1.72 1.49 1.26 1.09 1.07 0.97 0.81 0.71 0.68 0.64 0.55 0.55 0.60 0.60 0.57 0.56 0.56 0.57 0.58 0.59 0.59 0.57 0.58 0.59 0.57 0.55 0.54 0.57 0.67 0.77 0.81 0.82 0.83 0.84 0.85 0.80 0.69 0.74 0.71
1.73 1.66 1.69 1.65 1.45 1.24 1.09 1.03 0.95 0.82 0.71 0.70 0.66 0.57 0.57 0.55 0.58 0.59 0.57 0.54 0.49 0.49 0.50 0.51 0.53 0.54 0.54 0.54 0.52 0.50 0.47 0.52 0.59 0.61 0.68 0.76 0.86 0.89 0.91 0.91 0.87 0.76 0.78
1.65 1.60 1.57 1.51 1.23 1.09 0.97 0.87 0.78 0.74 0.70 0.65 0.56 0.55 0.54 0.57 0.58 0.59 0.58 0.53 0.49 0.45 0.43 0.43 0.47 0.49 0.50 0.50 0.52 0.50 0.50 0.54 0.55 0.58 0.62 0.65 0.72 0.79 0.88 0.95 0.99 0.96 0.84
1.50 1.48 1.40 1.20 1.06 0.92 0.80 0.78 0.75 0.66 0.58 0.53 0.50 0.52 0.58 0.59 0.60 0.59 0.58 0.54 0.52 0.45 0.43 0.46 0.46 0.46 0.44 0.46 0.48 0.50 0.51 0.52 0.53 0.52 0.53 0.54 0.60 0.68 0.76 0.86 0.98 0.98 1.03
1.41 1.26 1.12 0.98 0.89 0.82 0.74 0.68 0.62 0.61 0.56 0.52 0.54 0.55 0.56 0.58 0.58 0.57 0.55 0.53 0.52 0.49 0.51 0.51 0.51 0.49 0.47 0.44 0.47 0.50 0.51 0.50 0.50 0.50 0.51 0.53 0.59 0.64 0.72 0.78 0.89 0.98 1.00
1.13 0.97 0.91 0.88 0.84 0.80 0.74 0.70 0.65 0.59 0.55 0.56 0.56 0.57 0.57 0.57 0.56 0.55 0.54 0.54 0.54 0.54 0.54 0.54 0.55 0.54 0.54 0.51 0.47 0.50 0.51 0.54 0.55 0.54 0.56 0.60 0.63 0.64 0.66 0.76 0.79 0.89 0.85
0.91 0.88 0.91 0.92 0.87 0.80 0.76 0.73 0.68 0.63 0.62 0.63 0.63 0.63 0.60 0.57 0.57 0.58 0.58 0.57 0.59 0.60 0.58 0.56 0.53 0.52 0.50 0.50 0.48 0.49 0.52 0.55 0.57 0.62 0.64 0.66 0.67 0.68 0.68 0.73 0.77 0.82 0.83
0.88 0.93 0.95 0.93 0.89 0.85 0.78 0.75 0.79 0.76 0.75 0.74 0.73 0.70 0.68 0.67 0.66 0.65 0.65 0.63 0.62 0.63 0.57 0.52 0.52 0.52 0.51 0.50 0.48 0.47 0.52 0.56 0.64 0.69 0.74 0.76 0.76 0.77 0.76 0.77 0.75 0.78 0.77
0.93 0.98 0.97 0.94 0.89 0.84 0.82 0.76 0.70 0.79 0.84 0.80 0.77 0.75 0.71 0.67 0.68 0.67 0.66 0.65 0.66 0.64 0.56 0.54 0.55 0.57 0.55 0.53 0.51 0.51 0.53 0.60 0.71 0.76 0.80 0.81 0.84 0.81 0.82 0.80 0.77 0.73 0.74
0.96 0.96 0.89 0.83 0.82 0.82 0.82 0.79 0.80 0.77 0.72 0.69 0.77 0.77 0.73 0.71 0.73 0.72 0.71 0.69 0.63 0.60 0.58 0.53 0.54 0.57 0.58 0.55 0.52 0.54 0.56 0.63 0.74 0.81 0.85 0.84 0.84 0.85 0.83 0.81 0.78 0.75 0.72
0.89 0.86 0.88 0.86 0.81 0.82 0.83 0.84 0.84 0.76 0.73 0.71 0.73 0.73 0.74 0.76 0.74 0.71 0.69 0.63 0.59 0.58 0.58 0.54 0.56 0.60 0.60 0.58 0.55 0.57 0.59 0.66 0.77 0.83 0.84 0.85 0.84 0.84 0.84 0.86 0.86 0.85 0.79
0.88 0.89 0.88 0.83 0.83 0.85 0.85 0.79 0.74 0.80 0.80 0.73 0.69 0.67 0.70 0.69 0.64 0.63 0.64 0.61 0.57 0.58 0.60 0.59 0.62 0.63 0.62 0.55 0.57 0.59 0.62 0.68 0.76 0.79 0.80 0.80 0.86 0.86 0.85 0.84 0.85 0.83 0.83
0.83 0.88 0.90 0.93 0.91 0.90 0.92 0.90 0.81 0.74 0.71 0.69 0.67 0.69 0.68 0.64 0.64 0.64 0.66 0.65 0.66 0.65 0.65 0.64 0.64 0.64 0.59 0.56 0.61 0.62 0.64 0.67 0.76 0.79 0.79 0.78 0.82 0.83 0.87 0.89 0.89 0.88 0.88
0.90 0.91 0.94 0.90 0.95 0.93 0.89 0.84 0.77 0.72 0.69 0.67 0.67 0.68 0.69 0.68 0.69 0.68 0.71 0.72 0.72 0.72 0.71 0.67 0.62 0.57 0.54 0.58 0.61 0.64 0.60 0.64 0.74 0.76 0.77 0.75 0.75 0.82 0.87 0.88 0.90 0.91 0.90
0.96 0.92 0.89 0.89 0.84 0.79 0.77 0.74 0.69 0.70 0.68 0.69 0.71 0.72 0.72 0.73 0.73 0.76 0.85 0.78 0.71 0.68 0.65 0.59 0.51 0.45 0.50 0.55 0.61 0.60 0.57 0.65 0.76 0.78 0.73 0.69 0.70 0.75 0.82 0.85 0.91 0.92 0.91
0.93 0.81 0.74 0.73 0.75 0.71 0.68 0.66 0.72 0.76 0.74 0.73 0.73 0.72 0.77 0.84 0.86 0.86 0.77 0.67 0.67 0.63 0.55 0.44 0.43 0.45 0.47 0.51 0.55 0.56 0.58 0.67 0.77 0.75 0.71 0.65 0.66 0.69 0.72 0.80 0.89 0.94 0.93
0.70 0.69 0.74 0.73 0.73 0.71 0.72 0.73 0.73 0.73 0.74 0.72 0.75 0.80 0.84 0.88 0.81 0.72 0.66 0.65 0.60 0.47 0.43 0.45 0.46 0.46 0.48 0.50 0.52 0.51 0.52 0.56 0.66 0.67 0.65 0.64 0.66 0.68 0.69 0.71 0.82 0.91 0.96
0.72 0.73 0.73 0.73 0.75 0.74 0.71 0.74 0.77 0.76 0.74 0.78 0.85 0.88 0.89 0.86 0.78 0.67 0.63 0.58 0.45 0.44 0.44 0.44 0.45 0.46 0.48 0.51 0.53 0.54 0.54 0.57 0.59 0.61 0.62 0.62 0.64 0.66 0.69 0.68 0.77 0.85 0.97

GFSGL_prec_pwat_285.txt.gz
Precipitable_Water
1.71 1.70 1.75 1.77 1.77 1.66 1.53 1.38 1.57 1.66 1.70 1.72 1.69 1.57 1.47 1.38 1.30 1.22 1.16 1.13 1.04 0.92 0.86 0.84 0.83 0.86 0.84 0.87 0.91 0.93 0.91 0.90 0.76 0.84 0.98 1.16 1.21 1.37 1.54 1.68 1.77 1.83 2.06
1.80 1.79 1.82 1.82 1.77 1.63 1.28 1.48 1.63 1.65 1.77 1.79 1.74 1.62 1.51 1.45 1.34 1.20 1.14 1.09 0.94 0.82 0.84 0.87 0.85 0.86 0.81 0.82 0.80 0.78 0.79 0.85 0.81 0.71 0.86 0.93 1.01 1.12 1.16 1.20 1.33 1.52 1.63
2.11 1.98 1.88 1.79 1.74 1.47 1.36 1.58 1.67 1.73 1.80 1.76 1.71 1.60 1.55 1.49 1.37 1.19 1.03 0.91 0.89 0.87 0.84 0.83 0.82 0.79 0.73 0.73 0.73 0.70 0.70 0.72 0.76 0.72 0.69 0.83 0.91 1.01 0.99 1.06 1.07 1.07 1.19
1.82 1.94 1.97 1.91 1.78 1.40 1.56 1.71 1.75 1.84 1.78 1.70 1.62 1.52 1.44 1.25 1.12 1.00 0.90 0.85 0.79 0.74 0.71 0.70 0.72 0.65 0.63 0.63 0.64 0.63 0.62 0.61 0.62 0.62 0.65 0.69 0.77 0.84 0.85 0.87 0.85 1.00 0.95
1.52 1.76 1.96 2.05 1.78 1.52 1.71 1.81 1.80 1.76 1.66 1.51 1.40 1.21 1.02 0.90 0.92 0.88 0.78 0.67 0.63 0.64 0.67 0.67 0.70 0.70 0.70 0.71 0.68 0.67 0.65 0.60 0.58 0.56 0.54 0.58 0.61 0.64 0.67 0.75 0.72 0.75 0.81
1.56 1.59 1.85 1.83 1.70 1.70 1.78 1.80 1.77 1.69 1.50 1.34 1.11 0.97 0.81 0.70 0.65 0.60 0.64 0.65 0.67 0.66 0.64 0.66 0.68 0.66 0.68 0.66 0.63 0.64 0.65 0.60 0.58 0.57 0.56 0.54 0.58 0.62 0.68 0.67 0.65 0.64 0.58
1.54 1.61 1.64 1.57 1.69 1.77 1.81 1.78 1.71 1.61 1.34 1.13 0.99 0.84 0.66 0.56 0.55 0.57 0.58 0.60 0.57 0.56 0.55 0.55 0.52 0.55 0.57 0.56 0.56 0.57 0.58 0.59 0.61 0.60 0.56 0.57 0.58 0.67 0.69 0.65 0.67 0.66 0.63
1.49 1.52 1.56 1.63 1.70 1.75 1.69 1.68 1.62 1.43 1.17 1.01 0.87 0.69 0.58 0.57 0.59 0.58 0.56 0.55 0.53 0.54 0.55 0.55 0.52 0.52 0.52 0.51 0.49 0.48 0.49 0.50 0.52 0.54 0.56 0.57 0.61 0.66 0.68 0.72 0.77 0.77 0.75
1.50 1.51 1.58 1.63 1.66 1.65 1.62 1.56 1.44 1.16 0.99 0.85 0.67 0.57 0.55 0.56 0.56 0.55 0.55 0.55 0.55 0.56 0.59 0.60 0.58 0.53 0.51 0.51 0.49 0.47 0.47 0.47 0.52 0.54 0.55 0.56 0.58 0.62 0.68 0.69 0.64 0.63 0.59
1.58 1.58 1.64 1.65 1.65 1.63 1.58 1.46 1.23 1.08 0.89 0.71 0.59 0.59 0.59 0.59 0.60 0.60 0.62 0.61 0.58 0.59 0.61 0.61 0.58 0.57 0.56 0.55 0.54 0.52 0.46 0.48 0.51 0.52 0.52 0.53 0.57 0.58 0.60 0.63 0.62 0.56 0.58
1.61 1.66 1.66 1.73 1.65 1.59 1.48 1.23 1.08 0.89 0.74 0.63 0.58 0.61 0.63 0.65 0.64 0.64 0.64 0.64 0.61 0.60 0.60 0.60 0.63 0.61 0.60 0.60 0.60 0.56 0.52 0.53 0.52 0.51 0.51 0.53 0.56 0.59 0.61 0.65 0.67 0.63 0.58
1.59 1.64 1.68 1.63 1.57 1.43 1.22 1.06 0.92 0.82 0.71 0.62 0.62 0.62 0.66 0.69 0.68 0.68 0.67 0.67 0.69 0.65 0.63 0.66 0.68 0.64 0.63 0.63 0.63 0.59 0.56 0.53 0.51 0.50 0.48 0.49 0.51 0.55 0.62 0.68 0.72 0.73 0.74
1.56 1.56 1.58 1.49 1.40 1.25 1.02 0.90 0.85 0.81 0.69 0.65 0.66 0.65 0.66 0.70 0.71 0.69 0.68 0.69 0.70 0.68 0.71 0.71 0.69 0.66 0.66 0.66 0.66 0.64 0.62 0.57 0.52 0.48 0.48 0.48 0.52 0.59 0.66 0.71 0.76 0.79 0.78
1.46 1.48 1.38 1.26 1.12 0.99 0.97 0.94 0.85 0.77 0.70 0.68 0.68 0.67 0.69 0.71 0.73 0.75 0.74 0.74 0.74 0.75 0.76 0.75 0.74 0.71 0.68 0.66 0.67 0.67 0.66 0.61 0.55 0.52 0.51 0.55 0.58 0.58 0.63 0.71 0.73 0.78 0.77
1.41 1.29 1.22 1.07 0.95 0.96 0.96 0.91 0.85 0.83 0.74 0.73 0.75 0.79 0.78 0.77 0.79 0.77 0.76 0.78 0.79 0.76 0.72 0.72 0.69 0.67 0.65 0.65 0.64 0.64 0.63 0.61 0.55 0.55 0.54 0.52 0.54 0.58 0.62 0.72 0.72 0.77 0.76
1.23 1.17 1.04 0.94 0.97 0.95 0.90 0.87 0.86 0.83 0.86 0.87 0.86 0.84 0.83 0.83 0.83 0.80 0.81 0.77 0.77 0.77 0.71 0.66 0.62 0.63 0.62 0.62 0.60 0.58 0.59 0.58 0.55 0.56 0.55 0.53 0.54 0.59 0.66 0.71 0.73 0.74 0.76
1.23 1.09 0.98 0.99 0.97 0.92 0.89 0.86 0.86 0.86 0.85 0.87 0.89 0.87 0.88 0.85 0.82 0.81 0.81 0.79 0.76 0.73 0.67 0.66 0.64 0.62 0.62 0.62 0.61 0.60 0.56 0.54 0.55 0.56 0.57 0.55 0.57 0.65 0.70 0.70 0.70 0.73 0.77
1.17 1.09 1.08 1.06 1.00 0.94 0.93 1.01 0.91 0.83 0.83 0.88 0.93 0.87 0.81 0.78 0.80 0.79 0.74 0.69 0.66 0.68 0.70 0.72 0.71 0.66 0.65 0.63 0.60 0.56 0.51 0.51 0.53 0.57 0.59 0.56 0.59 0.68 0.72 0.69 0.69 0.71 0.74
1.15 1.14 1.15 1.09 1.03 1.04 1.03 0.90 0.87 0.87 0.87 0.84 0.81 0.80 0.78 0.74 0.71 0.69 0.69 0.68 0.66 0.68 0.72 0.76 0.72 0.69 0.66 0.58 0.53 0.51 0.51 0.52 0.53 0.55 0.57 0.56 0.61 0.71 0.71 0.68 0.70 0.70 0.70
1.19 1.14 1.07 1.00 0.97 0.90 0.88 0.88 0.85 0.80 0.75 0.73 0.68 0.66 0.66 0.67 0.65 0.69 0.73 0.74 0.74 0.75 0.79 0.71 0.67 0.63 0.52 0.48 0.48 0.48 0.50 0.51 0.52 0.52 0.53 0.56 0.63 0.71 0.70 0.69 0.69 0.67 0.66
1.10 0.97 0.91 0.88 0.85 0.87 0.87 0.83 0.80 0.70 0.65 0.63 0.65 0.68 0.69 0.67 0.68 0.73 0.72 0.77 0.79 0.79 0.72 0.66 0.60 0.47 0.45 0.46 0.48 0.48 0.49 0.50 0.51 0.50 0.53 0.54 0.60 0.66 0.69 0.69 0.68 0.65 0.62
0.94 0.92 0.88 0.84 0.88 0.83 0.76 0.69 0.68 0.67 0.66 0.65 0.67 0.73 0.73 0.72 0.73 0.74 0.77 0.85 0.87 0.80 0.70 0.57 0.46 0.44 0.46 0.48 0.47 0.50 0.53 0.53 0.53 0.54 0.54 0.52 0.56 0.64 0.65 0.62 0.62 0.60 0.59
0.89 0.85 0.85 0.84 0.74 0.71 0.68 0.68 0.67 0.67 0.68 0.70 0.71 0.72 0.74 0.75 0.81 0.86 0.89 0.87 0.83 0.71 0.59 0.48 0.43 0.43 0.45 0.43 0.44 0.50 0.50 0.49 0.51 0.54 0.54 0.55 0.57 0.58 0.57 0.57 0.58 0.56 0.57
0.82 0.78 0.70 0.68 0.71 0.68 0.68 0.65 0.64 0.67 0.71 0.74 0.73 0.77 0.79 0.83 0.84 0.86 0.85 0.83 0.73 0.63 0.51 0.43 0.43 0.43 0.42 0.38 0.38 0.41 0.41 0.40 0.42 0.45 0.48 0.48 0.50 0.52 0.54 0.55 0.56 0.56 0.57
0.73 0.67 0.65 0.67 0.69 0.69 0.69 0.69 0.70 0.70 0.73 0.77 0.79 0.82 0.82 0.83 0.83 0.83 0.84 0.78 0.66 0.56 0.44 0.43 0.45 0.45 0.43 0.38 0.37 0.37 0.36 0.35 0.34 0.33 0.34 0.39 0.45 0.52 0.54 0.57 0.57 0.55 0.55
0.67 0.66 0.68 0.67 0.70 0.71 0.69 0.69 0.71 0.74 0.76 0.78 0.80 0.82 0.87 0.88 0.86 0.86 0.82 0.67 0.58 0.50 0.43 0.45 0.48 0.49 0.47 0.40 0.34 0.32 0.33 0.33 0.32 0.31 0.35 0.44 0.50 0.53 0.54 0.58 0.58 0.57 0.56

GFSGL_prec_pwat_291.txt.gz
Precipitable_Water
1.62 1.74 1.81 1.80 1.78 1.85 1.77 1.66 1.52 1.65 1.72 1.74 1.77 1.81 1.74 1.72 1.67 1.53 1.39 1.46 1.06 1.00 0.98 0.95 0.92 0.86 0.81 0.84 0.81 0.87 0.80 0.83 0.66 0.71 0.78 0.90 0.86 0.94 0.99 1.11 1.11 1.11 1.24
1.63 1.76 1.85 1.89 1.93 1.94 1.87 1.70 1.67 1.69 1.79 1.81 1.88 1.83 1.73 1.55 1.49 1.26 1.12 1.12 1.07 0.96 0.88 0.86 0.85 0.81 0.77 0.79 0.76 0.79 0.77 0.75 0.68 0.63 0.73 0.73 0.80 0.86 0.99 0.95 0.91 1.01 1.12
1.73 1.78 1.88 1.94 1.93 1.91 1.91 1.74 1.73 1.71 1.83 1.92 1.80 1.69 1.51 1.33 1.15 0.96 0.93 0.98 0.93 0.85 0.83 0.86 0.82 0.80 0.76 0.76 0.79 0.78 0.79 0.77 0.77 0.69 0.68 0.75 0.78 0.89 0.80 0.79 0.85 0.89 0.90
1.84 1.83 1.88 1.90 1.90 1.92 1.88 1.84 1.82 1.80 1.85 1.83 1.78 1.68 1.38 1.17 0.99 0.88 0.79 0.72 0.75 0.80 0.82 0.84 0.76 0.74 0.69 0.66 0.68 0.67 0.66 0.67 0.70 0.64 0.64 0.65 0.68 0.71 0.67 0.66 0.61 0.72 0.74
1.95 2.03 1.92 1.88 1.90 1.92 1.88 1.82 1.91 1.83 1.83 1.84 1.81 1.66 1.22 1.05 0.76 0.73 0.70 0.73 0.75 0.73 0.70 0.69 0.61 0.62 0.59 0.55 0.53 0.55 0.54 0.52 0.53 0.51 0.54 0.57 0.58 0.60 0.58 0.60 0.58 0.62 0.66
2.01 1.82 1.77 1.80 1.83 1.84 2.11 2.00 1.84 1.79 1.78 1.78 1.76 1.54 1.12 0.82 0.58 0.62 0.74 0.72 0.71 0.67 0.63 0.64 0.63 0.56 0.64 0.64 0.58 0.58 0.58 0.52 0.48 0.50 0.51 0.50 0.54 0.58 0.59 0.57 0.58 0.55 0.47
1.69 1.70 1.73 1.71 1.70 1.70 1.88 1.86 1.75 1.73 1.73 1.73 1.66 1.36 0.96 0.63 0.58 0.64 0.68 0.69 0.67 0.67 0.67 0.66 0.61 0.59 0.59 0.65 0.66 0.67 0.68 0.63 0.60 0.57 0.54 0.55 0.53 0.56 0.58 0.57 0.57 0.58 0.58
1.61 1.64 1.70 1.61 1.67 1.68 1.64 1.63 1.61 1.67 1.67 1.62 1.39 1.04 0.74 0.59 0.60 0.60 0.65 0.70 0.70 0.70 0.70 0.70 0.66 0.63 0.58 0.61 0.68 0.65 0.65 0.64 0.63 0.63 0.64 0.64 0.64 0.66 0.64 0.61 0.62 0.64 0.65
1.51 1.49 1.56 1.53 1.59 1.58 1.47 1.49 1.64 1.62 1.56 1.45 1.16 0.86 0.62 0.56 0.58 0.63 0.72 0.75 0.74 0.74 0.72 0.67 0.69 0.69 0.63 0.62 0.65 0.67 0.68 0.67 0.68 0.68 0.70 0.71 0.71 0.72 0.69 0.66 0.61 0.58 0.54
1.55 1.49 1.60 1.62 1.54 1.47 1.46 1.58 1.63 1.62 1.49 1.20 0.95 0.74 0.64 0.60 0.63 0.67 0.74 0.80 0.78 0.77 0.86 0.87 0.82 0.76 0.68 0.66 0.63 0.65 0.66 0.69 0.65 0.70 0.74 0.72 0.78 0.77 0.74 0.73 0.66 0.58 0.57
1.55 1.65 1.64 1.58 1.56 1.57 1.58 1.63 1.62 1.48 1.24 1.00 0.80 0.73 0.74 0.74 0.68 0.68 0.72 0.79 0.75 0.77 0.80 0.83 0.89 0.83 0.76 0.72 0.70 0.68 0.68 0.72 0.68 0.71 0.74 0.66 0.64 0.66 0.69 0.71 0.69 0.65 0.59
1.63 1.64 1.66 1.67 1.64 1.57 1.59 1.59 1.53 1.31 1.03 0.80 0.76 0.79 0.88 0.85 0.78 0.69 0.70 0.72 0.75 0.77 0.82 0.86 0.85 0.79 0.75 0.77 0.79 0.80 0.79 0.77 0.77 0.74 0.70 0.66 0.62 0.62 0.64 0.68 0.69 0.69 0.70
1.60 1.58 1.62 1.63 1.60 1.62 1.54 1.46 1.27 1.07 0.86 0.83 0.83 0.86 0.89 0.88 0.87 0.80 0.77 0.77 0.78 0.81 0.86 0.82 0.81 0.80 0.83 0.83 0.84 0.82 0.83 0.78 0.76 0.70 0.64 0.65 0.65 0.65 0.66 0.66 0.70 0.72 0.72
1.68 1.64 1.63 1.58 1.55 1.56 1.48 1.35 1.10 0.94 0.91 0.90 0.90 0.89 0.89 0.92 0.94 0.96 0.94 0.97 1.00 0.93 0.86 0.80 0.78 0.81 0.85 0.84 0.83 0.83 0.83 0.81 0.72 0.68 0.68 0.67 0.65 0.64 0.64 0.66 0.63 0.65 0.62
1.65 1.63 1.61 1.55 1.49 1.44 1.32 1.13 1.04 1.04 0.98 0.94 0.94 0.95 0.94 0.94 0.98 0.99 0.91 0.86 0.79 0.73 0.69 0.68 0.66 0.75 0.79 0.83 0.82 0.76 0.75 0.71 0.66 0.65 0.61 0.58 0.59 0.63 0.64 0.68 0.64 0.62 0.60
1.56 1.60 1.59 1.51 1.42 1.27 1.14 1.03 1.02 1.02 0.95 0.97 1.02 1.04 1.02 0.95 0.95 0.86 0.70 0.67 0.67 0.67 0.63 0.63 0.72 0.78 0.76 0.78 0.73 0.70 0.68 0.61 0.59 0.59 0.58 0.60 0.60 0.62 0.64 0.66 0.64 0.62 0.62
1.46 1.48 1.54 1.46 1.30 1.17 1.06 0.99 0.93 0.97 0.96 0.98 0.95 0.89 0.85 0.82 0.69 0.60 0.63 0.65 0.63 0.64 0.68 0.71 0.77 0.78 0.79 0.74 0.70 0.64 0.53 0.55 0.58 0.56 0.57 0.58 0.60 0.63 0.63 0.63 0.61 0.61 0.63
1.56 1.52 1.47 1.36 1.23 1.10 1.06 1.04 1.01 0.94 0.91 0.86 0.86 0.77 0.65 0.59 0.59 0.59 0.61 0.60 0.61 0.72 0.81 0.73 0.82 0.79 0.77 0.71 0.65 0.54 0.53 0.54 0.53 0.53 0.54 0.59 0.62 0.61 0.59 0.57 0.57 0.59 0.61
1.48 1.43 1.33 1.27 1.19 1.14 1.12 1.06 0.99 0.98 0.96 0.86 0.73 0.70 0.67 0.62 0.55 0.61 0.69 0.73 0.73 0.77 0.79 0.82 0.84 0.83 0.74 0.67 0.56 0.54 0.54 0.52 0.50 0.53 0.57 0.60 0.61 0.60 0.57 0.56 0.54 0.57 0.64
1.41 1.36 1.28 1.26 1.19 1.10 1.04 1.00 1.01 0.94 0.76 0.65 0.66 0.67 0.76 0.71 0.70 0.72 0.75 0.77 0.84 0.92 0.85 0.90 0.84 0.77 0.67 0.59 0.55 0.52 0.49 0.48 0.48 0.51 0.53 0.57 0.58 0.58 0.56 0.55 0.56 0.59 0.62
1.33 1.33 1.28 1.16 1.05 1.05 1.02 0.99 0.90 0.70 0.66 0.63 0.64 0.68 0.67 0.67 0.65 0.70 0.74 0.91 0.81 0.86 0.96 0.83 0.77 0.69 0.58 0.52 0.50 0.47 0.46 0.45 0.43 0.38 0.37 0.35 0.35 0.40 0.49 0.56 0.59 0.59 0.58
1.27 1.16 1.06 1.03 1.01 0.96 0.93 0.82 0.68 0.65 0.64 0.65 0.70 0.74 0.75 0.70 0.74 0.84 0.86 0.83 0.88 0.89 0.87 0.79 0.69 0.60 0.53 0.50 0.50 0.49 0.49 0.46 0.40 0.36 0.32 0.32 0.34 0.37 0.40 0.46 0.52 0.56 0.61
1.06 0.97 0.95 0.92 0.90 0.87 0.75 0.70 0.66 0.66 0.67 0.71 0.72 0.77 0.75 0.77 0.80 0.80 0.82 0.90 0.89 0.89 0.81 0.71 0.66 0.59 0.53 0.54 0.55 0.54 0.52 0.49 0.41 0.34 0.34 0.35 0.33 0.36 0.42 0.47 0.53 0.56 0.62
0.98 0.93 0.88 0.86 0.83 0.70 0.69 0.65 0.69 0.69 0.67 0.67 0.70 0.75 0.76 0.78 0.81 0.90 0.89 0.91 0.90 0.84 0.77 0.72 0.70 0.62 0.54 0.56 0.58 0.57 0.57 0.54 0.43 0.37 0.36 0.33 0.30 0.36 0.46 0.53 0.56 0.58 0.61
0.91 0.87 0.83 0.78 0.69 0.67 0.71 0.70 0.71 0.73 0.72 0.73 0.72 0.73 0.80 0.83 0.89 0.87 0.95 0.93 0.90 0.82 0.78 0.75 0.72 0.61 0.54 0.58 0.59 0.58 0.56 0.52 0.41 0.37 0.34 0.31 0.28 0.37 0.50 0.55 0.56 0.58 0.58
0.83 0.81 0.74 0.69 0.69 0.72 0.75 0.72 0.72 0.72 0.72 0.75 0.76 0.78 0.83 0.85 0.89 0.92 0.94 0.92 0.89 0.85 0.83 0.75 0.71 0.60 0.55 0.59 0.58 0.53 0.49 0.47 0.40 0.35 0.32 0.30 0.31 0.39 0.52 0.56 0.57 0.59 0.58